Location: Unspecified
(48.2082°N, 0.0000°E)
Time: 21:00:18
(UTC+00:00)

A-11 Canister half - Pass Details

Date: 29 June 2019
Orbit: 1515 x 1685 km, 47.2° (Epoch: 15 July)

Event Time Altitude Azimuth Distance (km) Brightness Sun altitude
Rises 06:44:43 0° 188° (S) 4,925 11.5 23.8°
Reaches altitude 10° 06:48:52 10° 174° (S) 3,934 11.2 24.5°
Maximum altitude 06:55:54 22° 129° (SE) 3,072 11.5 25.7°
Drops below altitude 10° 07:02:50 10° 84° (E) 3,884 13.0 26.8°
Sets 07:06:51 0° 71° (ENE) 4,847 12.8 27.5°
